• In Uzbekistan
  • List of Countries
  • For 7 days
  • Water Temperature
  • Satellite Maps
  • Weather Map
  • Weather Widgets
  • user-avatar
    Login

    Hourly Weather Tirana

    Today, 22 July, Saturday

    Time Temperature Precipitation Wind Pressure Humidity
    00:00 +27°C° 0 mm 1 mps 753 mmHg 51%
    01:00 +27°C° 0 mm 1 mps 753 mmHg 50%
    02:00 +26°C° 0 mm 1 mps 753 mmHg 50%
    03:00 +26°C° 0 mm 1 mps 753 mmHg 50%
    04:00 +26°C° 0 mm 1 mps 753 mmHg 50%
    05:00 +28°C° 0 mm 1 mps 753 mmHg 47%
    06:00 +30°C° 0 mm 1 mps 753 mmHg 43%
    07:00 +32°C° 0 mm 1 mps 754 mmHg 40%
    08:00 +34°C° 0 mm 2 mps 754 mmHg 36%
    09:00 +36°C° 0 mm 2 mps 754 mmHg 32%
    10:00 +38°C° 0 mm 2 mps 754 mmHg 28%
    11:00 +38°C° 0 mm 3 mps 754 mmHg 26%
    12:00 +39°C° 0 mm 3 mps 754 mmHg 25%
    13:00 +41°C° 0 mm 4 mps 753 mmHg 24%
    14:00 +40°C° 0 mm 4 mps 753 mmHg 25%
    15:00 +39°C° 0 mm 3 mps 753 mmHg 27%
    16:00 +38°C° 0 mm 3 mps 753 mmHg 28%
    17:00 +36°C° 0 mm 2 mps 753 mmHg 34%
    18:00 +32°C° 0 mm 2 mps 753 mmHg 40%
    19:00 +29°C° 0 mm 1 mps 753 mmHg 46%
    20:00 +29°C° 0 mm 2 mps 753 mmHg 47%
    21:00 +28°C° 0 mm 2 mps 753 mmHg 47%
    22:00 +27°C° 0 mm 2 mps 754 mmHg 48%
    23:00 +27°C° 0 mm 2 mps 754 mmHg 47%

    Tomorrow, 23 July, Sunday

    Time Temperature Precipitation Wind Pressure Humidity
    00:00 +27°C° 0 mm 2 mps 754 mmHg 46%
    01:00 +26°C° 0 mm 2 mps 754 mmHg 45%
    02:00 +26°C° 0 mm 2 mps 753 mmHg 44%
    03:00 +26°C° 0 mm 2 mps 753 mmHg 43%
    04:00 +26°C° 0 mm 3 mps 753 mmHg 42%
    05:00 +28°C° 0 mm 2 mps 753 mmHg 39%
    06:00 +30°C° 0 mm 1 mps 753 mmHg 36%
    07:00 +32°C° 0 mm 1 mps 753 mmHg 33%
    08:00 +34°C° 0 mm 1 mps 753 mmHg 31%
    09:00 +36°C° 0 mm 2 mps 753 mmHg 28%
    10:00 +38°C° 0 mm 3 mps 753 mmHg 25%
    11:00 +38°C° 0 mm 3 mps 753 mmHg 25%
    12:00 +39°C° 0 mm 3 mps 752 mmHg 24%
    13:00 +39°C° 0 mm 3 mps 752 mmHg 24%
    14:00 +39°C° 0 mm 3 mps 752 mmHg 26%
    15:00 +38°C° 0 mm 3 mps 751 mmHg 28%
    16:00 +38°C° 0 mm 3 mps 751 mmHg 30%
    17:00 +35°C° 0 mm 2 mps 751 mmHg 37%
    18:00 +32°C° 0 mm 2 mps 751 mmHg 45%
    19:00 +29°C° 0 mm 2 mps 751 mmHg 53%
    20:00 +28°C° 0 mm 2 mps 752 mmHg 55%
    21:00 +27°C° 0 mm 1 mps 752 mmHg 57%
    22:00 +26°C° 0 mm 1 mps 752 mmHg 60%
    23:00 +26°C° 0 mm 1 mps 752 mmHg 59%

    Day after tomorrow, 24 July, Monday

    Time Temperature Precipitation Wind Pressure Humidity
    00:00 +26°C° 0 mm 1 mps 752 mmHg 59%
    01:00 +26°C° 0 mm 1 mps 751 mmHg 58%
    02:00 +25°C° 0 mm 1 mps 751 mmHg 57%
    03:00 +25°C° 0 mm 1 mps 751 mmHg 57%
    04:00 +25°C° 0 mm 1 mps 750 mmHg 56%
    05:00 +27°C° 0 mm 1 mps 750 mmHg 51%
    06:00 +29°C° 0 mm 1 mps 750 mmHg 46%
    07:00 +31°C° 0 mm 1 mps 750 mmHg 40%
    08:00 +33°C° 0 mm 1 mps 750 mmHg 36%
    09:00 +35°C° 0 mm 1 mps 750 mmHg 32%
    10:00 +37°C° 0 mm 2 mps 750 mmHg 27%
    11:00 +38°C° 0 mm 2 mps 749 mmHg 25%
    12:00 +39°C° 0 mm 3 mps 748 mmHg 23%
    13:00 +39°C° 0 mm 3 mps 748 mmHg 21%
    14:00 +39°C° 0 mm 3 mps 748 mmHg 22%
    15:00 +39°C° 0 mm 3 mps 747 mmHg 23%
    16:00 +39°C° 0 mm 3 mps 747 mmHg 24%
    17:00 +36°C° 0 mm 3 mps 747 mmHg 31%
    18:00 +32°C° 0 mm 2 mps 746 mmHg 38%
    19:00 +29°C° 0 mm 2 mps 746 mmHg 45%
    20:00 +29°C° 0 mm 3 mps 746 mmHg 45%
    21:00 +28°C° 0 mm 4 mps 746 mmHg 46%
    22:00 +27°C° 0 mm 5 mps 746 mmHg 46%
    23:00 +27°C° 0 mm 5 mps 746 mmHg 46%

    25 July, Tuesday

    Time Temperature Precipitation Wind Pressure Humidity
    00:00 +27°C° 0 mm 5 mps 746 mmHg 47%
    01:00 +26°C° 0 mm 6 mps 745 mmHg 47%
    02:00 +26°C° 0 mm 6 mps 745 mmHg 48%
    03:00 +25°C° 0 mm 5 mps 745 mmHg 50%
    04:00 +25°C° 0 mm 5 mps 745 mmHg 51%
    05:00 +26°C° 0 mm 5 mps 745 mmHg 51%
    06:00 +28°C° 0 mm 5 mps 745 mmHg 51%
    07:00 +29°C° 0 mm 5 mps 745 mmHg 51%
    08:00 +30°C° 0.1 mm 5 mps 745 mmHg 48%
    09:00 +32°C° 0.1 mm 6 mps 745 mmHg 44%
    10:00 +33°C° 0.1 mm 6 mps 745 mmHg 41%
    11:00 +33°C° 0 mm 5 mps 745 mmHg 40%
    12:00 +33°C° 0 mm 5 mps 745 mmHg 40%
    13:00 +33°C° 0 mm 4 mps 745 mmHg 39%
    14:00 +33°C° 0 mm 4 mps 745 mmHg 39%
    15:00 +33°C° 0 mm 3 mps 745 mmHg 39%
    16:00 +33°C° 0 mm 3 mps 745 mmHg 39%
    17:00 +30°C° 0 mm 3 mps 745 mmHg 45%
    18:00 +28°C° 0 mm 2 mps 745 mmHg 51%
    19:00 +26°C° 0 mm 2 mps 746 mmHg 57%
    20:00 +25°C° 0 mm 2 mps 746 mmHg 60%
    21:00 +24°C° 0 mm 2 mps 746 mmHg 64%
    22:00 +23°C° 0 mm 1 mps 746 mmHg 67%
    23:00 +23°C° 0 mm 2 mps 747 mmHg 67%

    26 July, Wednesday

    Time Temperature Precipitation Wind Pressure Humidity
    00:00 +23°C° 0 mm 2 mps 747 mmHg 67%
    01:00 +21°C° 0 mm 2 mps 747 mmHg 68%
    02:00 +21°C° 0 mm 2 mps 747 mmHg 68%
    03:00 +21°C° 0 mm 2 mps 747 mmHg 68%
    04:00 +21°C° 0 mm 2 mps 746 mmHg 68%
    05:00 +24°C° 0 mm 2 mps 747 mmHg 62%
    06:00 +26°C° 0 mm 2 mps 747 mmHg 56%
    07:00 +28°C° 0 mm 2 mps 747 mmHg 50%
    08:00 +29°C° 0 mm 2 mps 747 mmHg 45%
    09:00 +31°C° 0 mm 2 mps 747 mmHg 40%
    10:00 +34°C° 0 mm 2 mps 747 mmHg 35%
    11:00 +34°C° 0 mm 3 mps 746 mmHg 35%
    12:00 +34°C° 0 mm 4 mps 746 mmHg 34%
    13:00 +35°C° 0 mm 5 mps 746 mmHg 34%
    14:00 +34°C° 0 mm 4 mps 746 mmHg 36%
    15:00 +34°C° 0 mm 4 mps 746 mmHg 39%
    16:00 +33°C° 0 mm 4 mps 746 mmHg 41%
    17:00 +30°C° 0.1 mm 4 mps 746 mmHg 48%
    18:00 +28°C° 0.1 mm 3 mps 746 mmHg 55%
    19:00 +26°C° 0.1 mm 3 mps 746 mmHg 62%
    20:00 +25°C° 0.1 mm 3 mps 746 mmHg 65%
    21:00 +23°C° 0.1 mm 4 mps 746 mmHg 68%
    22:00 +22°C° 0.1 mm 4 mps 747 mmHg 71%
    23:00 +22°C° 0.3 mm 4 mps 747 mmHg 71%

    27 July, Thursday

    Time Temperature Precipitation Wind Pressure Humidity
    00:00 +22°C° 0.3 mm 4 mps 747 mmHg 70%
    01:00 +21°C° 0.3 mm 5 mps 747 mmHg 70%
    02:00 +21°C° 0.4 mm 4 mps 747 mmHg 71%
    03:00 +21°C° 0.4 mm 4 mps 746 mmHg 72%
    04:00 +20°C° 0.4 mm 4 mps 746 mmHg 72%
    05:00 +22°C° 0.7 mm 4 mps 747 mmHg 69%
    06:00 +23°C° 0.7 mm 4 mps 747 mmHg 65%
    07:00 +26°C° 0.7 mm 3 mps 747 mmHg 62%
    08:00 +27°C° 0.4 mm 4 mps 747 mmHg 57%
    09:00 +28°C° 0.4 mm 4 mps 747 mmHg 53%
    10:00 +29°C° 0.4 mm 4 mps 747 mmHg 49%
    11:00 +29°C° 0.4 mm 4 mps 748 mmHg 48%
    12:00 +30°C° 0.4 mm 4 mps 748 mmHg 47%
    13:00 +30°C° 0.4 mm 4 mps 748 mmHg 46%
    14:00 +30°C° 0.1 mm 4 mps 748 mmHg 47%
    15:00 +29°C° 0.1 mm 3 mps 748 mmHg 48%
    16:00 +29°C° 0.1 mm 3 mps 748 mmHg 49%
    17:00 +27°C° 0 mm 3 mps 748 mmHg 55%
    18:00 +26°C° 0 mm 3 mps 748 mmHg 61%
    19:00 +24°C° 0 mm 2 mps 748 mmHg 67%
    20:00 +23°C° 0 mm 2 mps 749 mmHg 73%
    21:00 +21°C° 0 mm 2 mps 749 mmHg 78%
    22:00 +20°C° 0 mm 2 mps 750 mmHg 84%
    23:00 +20°C° 0.1 mm 2 mps 750 mmHg 84%
    Show more